| time (UTC) | temp C | wind direction | speed KPH | gust KPH | rain 1hr cm | rain 24hr cm | rain mn cm | humidity % | barometer mb |
| 20260510160048 | 16 | 275 | 1.6 | 6.4 | 0.00 | 0.00 | 0.00 | 61 | 1014.2 |
| 20260510154547 | 16 | 246 | 1.6 | 6.4 | 0.00 | 0.00 | 0.00 | 59 | 1013.9 |
| 20260510153046 | 16 | 277 | 1.6 | 4.8 | 0.00 | 0.00 | 0.00 | 55 | 1014.1 |
| 20260510151545 | 17 | 146 | 1.6 | 3.2 | 0.00 | 0.00 | 0.00 | 53 | 1014.1 |
| 20260510150048 | 16 | 140 | 1.6 | 4.8 | 0.00 | 0.00 | 0.00 | 56 | 1014.0 |
| 20260510144540 | 15 | 267 | 3.2 | 6.4 | 0.00 | 0.00 | 0.00 | 59 | 1014.5 |
| 20260510143035 | 16 | 227 | 0.0 | 1.6 | 0.00 | 0.00 | 0.00 | 63 | 1014.6 |
| 20260510141533 | 15 | 159 | 0.0 | 1.6 | 0.00 | 0.00 | 0.00 | 60 | 1014.4 |
| 20260510140026 | 13 | 146 | 1.6 | 3.2 | 0.00 | 0.00 | 0.00 | 69 | 1014.4 |
| 20260510134522 | 11 | 141 | 3.2 | 4.8 | 0.00 | 0.00 | 0.00 | 75 | 1014.1 |
| 20260510133024 | 8 | 79 | 1.6 | 3.2 | 0.00 | 0.00 | 0.00 | 81 | 1014.0 |
| 20260510131519 | 7 | 87 | 3.2 | 6.4 | 0.00 | 0.00 | 0.00 | 81 | 1014.0 |
| 20260510130019 | 6 | 81 | 1.6 | 4.8 | 0.00 | 0.00 | 0.00 | 87 | 1013.7 |
| 20260510124517 | 5 | 83 | 1.6 | 4.8 | 0.00 | 0.00 | 0.00 | 85 | 1013.8 |
| 20260510123015 | 5 | 80 | 1.6 | 4.8 | 0.00 | 0.00 | 0.00 | 85 | 1013.6 |
| 20260510121513 | 6 | 59 | 0.0 | 1.6 | 0.00 | 0.00 | 0.00 | 83 | 1013.5 |
| 20260510120010 | 6 | 72 | 4.8 | 6.4 | 0.00 | 0.00 | 0.00 | 81 | 1013.6 |
| 20260510114510 | 6 | 76 | 0.0 | 3.2 | 0.00 | 0.00 | 0.00 | 83 | 1013.8 |
| 20260510113006 | 6 | 69 | 0.0 | 6.4 | 0.00 | 0.00 | 0.00 | 79 | 1013.7 |
| 20260510111505 | 9 | 88 | 1.6 | 4.8 | 0.00 | 0.00 | 0.00 | 69 | 1013.8 |
| 20260510110005 | 8 | 112 | 1.6 | 4.8 | 0.00 | 0.00 | 0.00 | 73 | 1013.7 |
| 20260510104501 | 7 | 78 | 3.2 | 4.8 | 0.00 | 0.00 | 0.00 | 79 | 1013.8 |
| 20260510103100 | 7 | 79 | 4.8 | 6.4 | 0.00 | 0.00 | 0.00 | 77 | 1013.9 |
| 20260510101608 | 7 | 80 | 4.8 | 6.4 | 0.00 | 0.00 | 0.00 | 77 | 1013.9 |
| 20260510100107 | 7 | 85 | 6.4 | 8.0 | 0.00 | 0.00 | 0.00 | 79 | 1014.0 |
| 20260510094554 | 8 | 73 | 3.2 | 8.0 | 0.00 | 0.00 | 0.00 | 76 | 1014.0 |
| 20260510093050 | 10 | 73 | 4.8 | 8.0 | 0.00 | 0.00 | 0.00 | 67 | 1014.2 |
| 20260510091549 | 11 | 73 | 3.2 | 4.8 | 0.00 | 0.00 | 0.00 | 67 | 1014.4 |
| 20260510090048 | 11 | 357 | 0.0 | 3.2 | 0.00 | 0.00 | 0.00 | 67 | 1014.4 |
| 20260510084606 | 11 | 42 | 1.6 | 3.2 | 0.00 | 0.00 | 0.00 | 66 | 1014.4 |
| 20260510083046 | 11 | 50 | 0.0 | 3.2 | 0.00 | 0.00 | 0.00 | 67 | 1014.5 |
| 20260510081545 | 10 | 64 | 3.2 | 6.4 | 0.00 | 0.00 | 0.00 | 67 | 1014.6 |
| 20260510080059 | 10 | 64 | 1.6 | 3.2 | 0.00 | 0.00 | 0.00 | 70 | 1014.7 |
| 20260510074547 | 10 | 72 | 3.2 | 6.4 | 0.00 | 0.00 | 0.00 | 73 | 1014.8 |
| 20260510073048 | 10 | 85 | 4.8 | 4.8 | 0.00 | 0.00 | 0.00 | 72 | 1014.7 |
| 20260510071538 | 10 | 83 | 4.8 | 6.4 | 0.00 | 0.00 | 0.00 | 71 | 1014.8 |
| 20260510070043 | 11 | 79 | 4.8 | 6.4 | 0.00 | 0.00 | 0.00 | 67 | 1014.9 |
| 20260510064539 | 11 | 88 | 4.8 | 6.4 | 0.00 | 0.00 | 0.00 | 68 | 1014.8 |
| 20260510063036 | 11 | 104 | 1.6 | 6.4 | 0.00 | 0.00 | 0.00 | 67 | 1014.7 |
| 20260510061633 | 11 | 81 | 3.2 | 6.4 | 0.00 | 0.00 | 0.00 | 66 | 1014.9 |
| 20260510060039 | 12 | 79 | 4.8 | 6.4 | 0.00 | 0.00 | 0.00 | 60 | 1014.9 |
| 20260510054530 | 12 | 54 | 3.2 | 4.8 | 0.00 | 0.00 | 0.00 | 61 | 1014.9 |
| 20260510053028 | 13 | 50 | 1.6 | 6.4 | 0.00 | 0.00 | 0.00 | 57 | 1015.1 |
| 20260510051528 | 14 | 54 | 4.8 | 11.3 | 0.00 | 0.00 | 0.00 | 52 | 1015.0 |
| 20260510050035 | 15 | 38 | 4.8 | 11.3 | 0.00 | 0.00 | 0.00 | 51 | 1015.2 |
| 20260510044526 | 13 | 66 | 6.4 | 9.7 | 0.00 | 0.00 | 0.00 | 56 | 1015.3 |
| 20260510043025 | 15 | 73 | 9.7 | 12.9 | 0.00 | 0.00 | 0.00 | 49 | 1015.3 |
| 20260510041526 | 15 | 59 | 8.0 | 11.3 | 0.00 | 0.00 | 0.00 | 51 | 1015.5 |
| 20260510040023 | 15 | 67 | 8.0 | 11.3 | 0.00 | 0.00 | 0.00 | 51 | 1015.4 |
| 20260510034523 | 15 | 61 | 6.4 | 11.3 | 0.00 | 0.00 | 0.00 | 54 | 1015.3 |
| 20260510033021 | 15 | 62 | 8.0 | 11.3 | 0.00 | 0.00 | 0.00 | 57 | 1015.3 |
| 20260510031524 | 14 | 66 | 6.4 | 8.0 | 0.00 | 0.00 | 0.00 | 66 | 1015.3 |
| 20260510030020 | 15 | 52 | 4.8 | 6.4 | 0.00 | 0.00 | 0.00 | 65 | 1015.4 |
| 20260510024521 | 16 | 72 | 4.8 | 6.4 | 0.00 | 0.00 | 0.00 | 60 | 1015.4 |
| 20260510023019 | 17 | 69 | 4.8 | 6.4 | 0.00 | 0.00 | 0.00 | 57 | 1015.4 |
| 20260510021541 | 18 | 57 | 3.2 | 9.7 | 0.00 | 0.00 | 0.00 | 54 | 1015.4 |
| 20260510020017 | 18 | 54 | 6.4 | 11.3 | 0.00 | 0.00 | 0.00 | 52 | 1015.5 |
| 20260510014530 | 18 | 57 | 4.8 | 9.7 | 0.00 | 0.00 | 0.00 | 50 | 1015.7 |
| 20260510013012 | 20 | 61 | 8.0 | 12.9 | 0.00 | 0.00 | 0.00 | 46 | 1016.0 |
| 20260510011516 | 21 | 33 | 4.8 | 14.5 | 0.00 | 0.00 | 0.00 | 44 | 1016.1 |
| 20260510010020 | 21 | 57 | 4.8 | 14.5 | 0.00 | 0.00 | 0.00 | 43 | 1016.1 |
| 20260510004509 | 21 | 312 | 3.2 | 12.9 | 0.00 | 0.00 | 0.00 | 40 | 1016.3 |
| 20260510003007 | 21 | 331 | 4.8 | 11.3 | 0.00 | 0.00 | 0.00 | 41 | 1016.6 |
| 20260510001506 | 21 | 54 | 8.0 | 12.9 | 0.00 | 0.00 | 0.00 | 39 | 1016.7 |
| 20260510000004 | 21 | 45 | 6.4 | 12.9 | 0.00 | 0.00 | 0.00 | 39 | 1016.8 |
| 20260509234503 | 21 | 337 | 4.8 | 11.3 | 0.00 | 0.00 | 0.00 | 39 | 1016.9 |
| 20260509233001 | 21 | 315 | 6.4 | 12.9 | 0.00 | 0.00 | 0.00 | 38 | 1016.8 |
| 20260509231604 | 21 | 52 | 4.8 | 12.9 | 0.00 | 0.00 | 0.00 | 37 | 1017.1 |
| 20260509230059 | 21 | 303 | 6.4 | 17.7 | 0.00 | 0.00 | 0.00 | 37 | 1017.3 |
| 20260509224556 | 21 | 38 | 4.8 | 11.3 | 0.00 | 0.00 | 0.00 | 36 | 1017.5 |
| 20260509223054 | 21 | 286 | 3.2 | 12.9 | 0.00 | 0.00 | 0.00 | 36 | 1017.7 |
| 20260509221550 | 20 | 305 | 1.6 | 12.9 | 0.00 | 0.00 | 0.00 | 37 | 1017.8 |
| 20260509220051 | 21 | 315 | 3.2 | 12.9 | 0.00 | 0.00 | 0.00 | 35 | 1017.9 |
| 20260509214549 | 20 | 335 | 3.2 | 14.5 | 0.00 | 0.00 | 0.00 | 36 | 1018.0 |
| 20260509213103 | 21 | 59 | 6.4 | 11.3 | 0.00 | 0.00 | 0.00 | 37 | 1018.1 |
| 20260509211546 | 20 | 42 | 3.2 | 11.3 | 0.00 | 0.00 | 0.00 | 38 | 1018.1 |
| 20260509210049 | 20 | 312 | 8.0 | 16.1 | 0.00 | 0.00 | 0.00 | 39 | 1018.3 |
| 20260509204540 | 20 | 263 | 4.8 | 12.9 | 0.00 | 0.00 | 0.00 | 40 | 1018.4 |
| 20260509203037 | 20 | 74 | 3.2 | 9.7 | 0.00 | 0.00 | 0.00 | 40 | 1018.6 |
| 20260509201538 | 20 | 296 | 6.4 | 16.1 | 0.00 | 0.00 | 0.00 | 38 | 1018.6 |
| 20260509200034 | 19 | 303 | 3.2 | 11.3 | 0.00 | 0.00 | 0.00 | 42 | 1018.8 |
| 20260509194544 | 19 | 303 | 3.2 | 11.3 | 0.00 | 0.00 | 0.00 | 43 | 1018.9 |
| 20260509193027 | 18 | 278 | 8.0 | 12.9 | 0.00 | 0.00 | 0.00 | 45 | 1019.1 |
| 20260509191526 | 19 | 277 | 1.6 | 8.0 | 0.00 | 0.00 | 0.00 | 50 | 1019.3 |
| 20260509190026 | 18 | 22 | 0.0 | 11.3 | 0.00 | 0.00 | 0.00 | 44 | 1019.3 |
| 20260509184521 | 17 | 299 | 3.2 | 9.7 | 0.00 | 0.00 | 0.00 | 49 | 1019.5 |
| 20260509183017 | 17 | 267 | 4.8 | 8.0 | 0.00 | 0.00 | 0.00 | 51 | 1019.5 |
| 20260509181515 | 17 | 274 | 4.8 | 14.5 | 0.00 | 0.00 | 0.00 | 56 | 1019.7 |
| 20260509180012 | 16 | 217 | 1.6 | 11.3 | 0.00 | 0.00 | 0.00 | 51 | 1019.8 |
| 20260509174510 | 16 | 252 | 3.2 | 8.0 | 0.00 | 0.00 | 0.00 | 54 | 1019.9 |
| 20260509173009 | 16 | 287 | 3.2 | 9.7 | 0.00 | 0.00 | 0.00 | 58 | 1020.0 |
| 20260509171507 | 16 | 258 | 3.2 | 12.9 | 0.00 | 0.00 | 0.00 | 61 | 1020.1 |
| 20260509170005 | 15 | 246 | 4.8 | 11.3 | 0.00 | 0.00 | 0.00 | 54 | 1020.1 |
| 20260509164502 | 14 | 297 | 0.0 | 8.0 | 0.00 | 0.00 | 0.00 | 58 | 1020.1 |
| 20260509163104 | 13 | 286 | 3.2 | 8.0 | 0.00 | 0.00 | 0.00 | 59 | 1020.1 |
| 20260509161604 | 13 | 267 | 4.8 | 8.0 | 0.00 | 0.00 | 0.00 | 62 | 1020.1 |